Terminal Aerodrome Forecast
Issued by NWS Atlanta, GA

Home | Current Version | Previous Version | Text Only | Print | Product List | Glossary On
Versions: 1 2 3 4 5 6 7 8 9 10 11 12 13 14 15 16 17 18 19 20 21 22 23 24 25 26 27 28 29 30 31 32 33 34 35 36
000
FTUS42 KFFC 201120
TAFATL
TAF
KATL 201120Z 2012/2118 25006KT P6SM FEW250
     FM201600 28010G18KT P6SM FEW250
     FM210000 30005KT P6SM FEW250
     FM211500 35005KT P6SM FEW250=

USA.gov is the U.S. government's official web portal to all federal, state and local government web resources and services.